Погода в Шымкенте

Поиск расширенной информации на нашем сайте:

Полезная информация:

Новости сайта



02.01.2020
Опубликован Долгосрочный прогноз погоды по городам России и ближнего зарубежья на январь 2020 года.
Карты: Прогноз на январь и февраль 2020 года, Сравнение прогнозируемой аномалии приземной температуры воздуха на январь 2020 года по разным моделям.




Погода в Шымкенте - сегодня

Время (UTC), дата Ветер
(°,м/с) 
Видим.   Явления Облачность Т
(°С)
Тd
(°С)
f(%) Тe
(°С)
Pmin
(гПа)
dP
(гПа)
Po
(мм)
O2
(г/м3)
Тmin Tmax R s Состояние
почвы
21 22.09.20 270 (З) н/о    ясно 
+6.6 -0.2 62 +8  1021.6  -0.7  712  280           
00 23.09.20 140 (ЮВ) н/о    ясно 
+8.6 -2.3 46 +9  1020.7  -0.3  712  278           
03 23.09.20 020 (С) 20000 м    9/0 средняя 
[Ac trans]
+10.5 +0.2 49 +12  1021.3  0.9  713  276           
06 23.09.20 320 (СЗ) 20000 м    3/0 средняя, верхняя 
[Ac trans|Ci fib]
+17.2 -3.8 24 +18  1019.8  0.2  713  271  +3.3         
09 23.09.20 330 (СЗ) 20000 м    6/0 средняя, верхняя 
[Ac trans|Ci fib]
+19.8 -4.2 19 +21  1018  -1.1  712  268           
12 23.09.20 270 (З) 20000 м    4/0 средняя 
[Ac trans]
+19.6 -5.8 17 +21  1016.9  -1.1  711  268           
15 23.09.20 тихо ()   н/о    3/0 средняя 
[Ac trans]
+14.1 -0.4 37 +14  1019.1  0.9  712  273    +20.7       
18 23.09.20 150 (ЮВ) н/о    ясно 
+10.1 -1.2 45 +10  1018.7  -0.1  712  277    +20.7       
21 23.09.20 130 (ЮВ) н/о    ясно 
+10.9 -3.7 36 +11  1019.6  -0.3  712  276           
00 24.09.20 150 (ЮВ) н/о    ясно 
+7.9 -0.9 54 +9  1020.7  0.3  712  279           
03 24.09.20 140 (ЮВ) 20000 м    ясно 
+12.7 -3.3 33 +14  1020.4  0.9  713  275           
06 24.09.20 270 (З) 20000 м    ясно 
+19.4 -7.9 15 +20  1019.4  0.6  713  269  +7.2         
09 24.09.20 290 (З) 20000 м    4/0 верхняя 
[Ci fib]
+22.2 -8.4 12 +22  1017.5  -1.2  712  266           
12 24.09.20 300 (СЗ) 20000 м    ясно 
+21.4 -7.8 13 +21  1017.3  -0.3  712  267           
15 24.09.20 тихо ()   н/о    ясно 
+13.1 +1.6 46 +13  1019.7  0.4  712  273    +23.3       
18 24.09.20 090 (В) н/о    ясно 
+11.1 +0.2 47 +12  1019.4  -0.8  712  275    +23.3       
21 24.09.20 090 (В) н/о    ясно 
+8.8 -1 50 +10  1018.1  -1.7  710  277           
00 25.09.20 100 (В) н/о    ясно 
+10.1 -2 43 +11  1017.2  -0.5  710  276           
03 25.09.20 090 (В) 20000 м    ясно 
+13.1 +0 41 +14  1016.1  -0.4  710  273           
06 25.09.20 100 (В) 20000 м    ясно 
+21.9 +1.8 26 +22  1013.6  -0.2  710  264  +7.2         
09 25.09.20 210 (ЮЗ) 20000 м    ясно 
+25.5 -0.3 18 +26  1011.5  -1.3  709  261           
12 25.09.20 100 (В) 20000 м    ясно 
+24.1 +3.3 26 +24  1011.2  -0.5  708  262           
15 25.09.20 100 (В) н/о    ясно 
+17.6 +1.8 35 +18  1013.1  0.3  708  268    +26.1       
18 25.09.20 100 (В) н/о    ясно 
+14.3 -3.7 29 +15  1013.1  -0.8  708  271    +26.1       
21 25.09.20 100 (В) н/о    ясно 
+11.5 -2.2 38 +13  1013.1  -0.6  707  274           
Время (UTC), дата Ветер
(°,м/с) 
Видим.   Явления Облачность Т
(°С)
Тd
(°С)
f(%) Тe
(°С)
Pmin
(гПа)
dP
(гПа)
Po
(мм)
O2
(г/м3)
Тmin Tmax R s Состояние
почвы

Для получения пояснительной информации подведите курсор к названию столбца.

ПОГОДА в Шымкенте - архив

Всё, что Вы хотите узнать о погоде в Шымкенте - удобно и подробно!

Выберите нужную дату (начиная с 1 января 2019* года) и нажмите кнопку "Найти".
Будут отображены архивные сводки погоды по пункту Шымкент, начиная с указанной даты.


Отображать данные в формате CSV (для использования в таблицах Excel)


Внимание! Наш архив погоды предназначен исключительно для личного некоммерческого использования в познавательных целях. Если Вам необходимы официальные справки о состоянии погоды (для производственных, юридических, коммерческих и т.п. целей), обращайтесь в органы Росгидромета.

*Примечание: данная дата относится к архиву по метеостанциям СССР (Россия, СНГ, Балтия).
Архив по метеостанциям Зарубежной Европы и Азии (кроме Китая) хранится 10 дней, по другим регионам земного шара (Китай, Африка, Америка, Австралия, Океания) - 1 день.

Шымкент - район местоположения метеостанции


Название, широта, долгота, высота метеостанции:
Шымкент (город) 42.3°ш. 69.7°д. 604 м над ур. моря [Казахстан]

Дополнительная информация

В oтличие oт бoльшинства пoгoдных сайтoв мы публикуем пoдрoбную метеoинфoрмацию в детальнoм прoфессиoнальнoм фoрмате.

Характеристики температуры и влажнoсти вoздуха измеряются на высoте 2 м в тени вдали oт зданий и деревьев.
Скoрoсть ветра измеряется на высoте 10 м (на урoвне рoста челoвека скoрoсть ветра ниже в 1.5-2 раза). Если метеoстанция нахoдится в гoрoде или в лесу, тo скoрoсть ветра занижена на 2-4 м/с пo сравнению с oткрытым местoм. Скoрoсть ветра над акватoриями крупных рек и oзёр, а также на вершинах хoлмoв на 2-5 м/с выше, чем в oбычных услoвиях.
Атмoсфернoе давление в разных тoчках местнoсти мoжет значительнo oтличаться oт давления на метеoстанции, в зависимoсти oт услoвий рельефа (при пoдъёме на 10 м давление пoнижается примернo на 1 мм рт.ст.).